FW6365 Weather Reports


time (UTC)temp
C
wind
direction
speed
KPH
gust
KPH
rain 1hr
cm
rain 24hr
cm
rain mn
cm
humidity
%
barometer
mb
20260507051540 11 207 4.8 8.0 0.00 0.00 0.00 82 1022.1
20260507051030 11 226 3.2 12.9 0.00 0.00 0.00 82 1022.2
20260507050526 11 194 6.4 12.9 0.00 0.00 0.00 82 1022.2
20260507050045 11 203 4.8 11.3 0.00 0.00 0.00 82 1022.1
20260507045526 11 193 6.4 11.3 0.00 0.00 0.00 83 1022.3
20260507045026 11 159 4.8 9.7 0.00 0.00 0.00 84 1022.2
20260507044542 11 234 4.8 9.7 0.00 0.00 0.00 84 1022.2
20260507044025 11 195 3.2 8.0 0.00 0.00 0.00 84 1022.3
20260507043526 11 203 3.2 11.3 0.00 0.00 0.00 84 1022.2
20260507043044 11 213 6.4 11.3 0.00 0.00 0.00 84 1022.2
20260507042526 11 196 4.8 9.7 0.00 0.00 0.00 84 1022.1
20260507042026 11 242 3.2 9.7 0.00 0.00 0.00 84 1022.1
20260507041545 11 227 4.8 9.7 0.00 0.00 0.00 83 1022.1
20260507041026 11 202 4.8 11.3 0.00 0.00 0.00 83 1022.1
20260507040527 12 148 4.8 11.3 0.00 0.00 0.00 82 1022.0
20260507040042 12 247 4.8 9.7 0.00 0.00 0.00 83 1021.9
20260507035526 12 216 1.6 4.8 0.00 0.00 0.00 83 1021.9
20260507035026 12 226 1.6 14.5 0.00 0.00 0.00 84 1021.9
20260507034603 12 240 3.2 14.5 0.00 0.00 0.00 83 1021.9
20260507034027 12 200 3.2 14.5 0.00 0.00 0.00 84 1021.9
20260507033526 12 271 4.8 14.5 0.00 0.00 0.00 84 1021.8
20260507033100 12 229 4.8 14.5 0.00 0.00 0.00 84 1021.8
20260507032526 12 236 4.8 9.7 0.00 0.00 0.00 85 1021.8
20260507032025 12 208 1.6 9.7 0.00 0.00 0.00 85 1021.6
20260507031542 12 209 4.8 9.7 0.00 0.00 0.00 85 1021.6
20260507031026 12 219 3.2 8.0 0.00 0.00 0.00 85 1021.6
20260507030526 12 198 3.2 14.5 0.00 0.00 0.00 85 1021.5
20260507030041 12 173 4.8 14.5 0.00 0.00 0.00 84 1021.5
20260507025525 12 252 8.0 14.5 0.00 0.00 0.00 84 1021.4
20260507025026 12 182 4.8 11.3 0.00 0.00 0.00 84 1021.3
20260507024551 12 209 6.4 11.3 0.00 0.00 0.00 85 1021.4
20260507024026 12 191 4.8 9.7 0.00 0.00 0.00 85 1021.4
20260507023526 12 175 4.8 16.1 0.00 0.00 0.00 84 1021.3
20260507023040 12 234 1.6 16.1 0.00 0.00 0.00 84 1021.3
20260507022526 12 254 6.4 16.1 0.00 0.00 0.00 85 1021.3
20260507022028 12 195 4.8 9.7 0.00 0.00 0.00 85 1021.2
20260507021547 12 224 3.2 11.3 0.00 0.00 0.00 85 1021.4
20260507021026 12 215 6.4 14.5 0.00 0.00 0.00 84 1021.5
20260507020526 12 217 4.8 14.5 0.00 0.00 0.00 84 1021.4
20260507020042 12 213 6.4 14.5 0.00 0.00 0.00 84 1021.4
20260507015526 12 196 8.0 14.5 0.00 0.00 0.00 84 1021.4
20260507015026 12 196 8.0 14.5 0.00 0.00 0.00 84 1021.5
20260507014540 12 202 8.0 17.7 0.00 0.00 0.00 83 1021.4
20260507014026 12 202 9.7 17.7 0.00 0.00 0.00 83 1021.5
20260507013525 13 224 6.4 14.5 0.00 0.00 0.00 83 1021.5
20260507013041 13 163 4.8 19.3 0.00 0.00 0.00 82 1021.5
20260507012525 13 202 6.4 22.5 0.00 0.00 0.00 82 1021.4
20260507012026 13 204 9.7 24.1 0.00 0.00 0.00 81 1021.4
20260507011541 13 248 8.0 24.1 0.00 0.00 0.00 81 1021.4
20260507011025 13 221 9.7 19.3 0.00 0.00 0.00 81 1021.4
20260507010530 13 236 8.0 17.7 0.00 0.00 0.00 81 1021.5
20260507010041 13 200 4.8 19.3 0.00 0.00 0.00 81 1021.4
20260507005527 13 250 8.0 19.3 0.00 0.00 0.00 81 1021.3
20260507005026 13 240 6.4 14.5 0.00 0.00 0.00 81 1021.3
20260507004539 13 242 6.4 16.1 0.00 0.00 0.00 81 1021.3
20260507004026 13 214 4.8 16.1 0.00 0.00 0.00 81 1021.3
20260507003529 13 254 8.0 14.5 0.00 0.00 0.00 81 1021.3
20260507003043 13 215 4.8 19.3 0.00 0.00 0.00 81 1021.3
20260507002528 13 243 9.7 19.3 0.00 0.00 0.00 80 1021.4
20260507002026 13 211 4.8 14.5 0.00 0.00 0.00 80 1021.4
20260507001604 13 228 4.8 16.1 0.00 0.00 0.00 80 1021.3
20260507001025 13 198 6.4 16.1 0.00 0.00 0.00 80 1021.4
20260507000526 13 246 6.4 16.1 0.00 0.00 0.00 80 1021.5
20260507000042 14 192 9.7 14.5 0.00 0.00 0.00 80 1021.5
20260506235526 14 237 4.8 17.7 0.00 0.00 0.00 80 1021.6
20260506235028 14 242 6.4 19.3 0.00 0.00 0.00 80 1021.5
20260506234549 13 231 9.7 19.3 0.00 0.00 0.00 79 1021.7
20260506234026 13 205 4.8 12.9 0.00 0.00 0.00 79 1021.6
20260506233525 13 187 6.4 12.9 0.00 0.00 0.00 80 1021.7
20260506233040 13 260 6.4 17.7 0.00 0.00 0.00 81 1021.6
20260506232525 13 215 8.0 19.3 0.00 0.00 0.00 80 1021.7
20260506232027 13 211 8.0 19.3 0.00 0.00 0.00 81 1021.6
20260506231538 13 221 8.0 17.7 0.00 0.00 0.00 80 1021.5
20260506231026 13 265 6.4 17.7 0.00 0.00 0.00 81 1021.6
20260506230525 13 181 6.4 17.7 0.00 0.00 0.00 81 1021.6
20260506230045 13 151 11.3 25.7 0.00 0.00 0.00 80 1021.6
20260506225526 13 235 8.0 25.7 0.00 0.00 0.00 80 1021.6
20260506225026 13 202 14.5 25.7 0.00 0.00 0.00 79 1021.6
20260506224600 13 205 11.3 25.7 0.00 0.00 0.00 80 1021.5
20260506224025 13 194 9.7 24.1 0.00 0.00 0.00 81 1021.6
20260506223525 13 257 9.7 20.9 0.00 0.00 0.00 81 1021.6
20260506223040 13 161 12.9 24.1 0.00 0.00 0.00 81 1021.7
20260506222527 13 215 11.3 24.1 0.00 0.00 0.00 80 1021.8
20260506222026 13 221 9.7 24.1 0.00 0.00 0.00 81 1021.9
20260506221541 13 228 11.3 32.2 0.00 0.00 0.00 80 1021.8
20260506221026 13 215 9.7 32.2 0.00 0.00 0.00 80 1021.8
20260506220525 13 193 11.3 22.5 0.00 0.00 0.00 80 1021.9
20260506220045 13 220 9.7 22.5 0.00 0.00 0.00 80 1021.9
20260506215526 13 189 8.0 19.3 0.00 0.00 0.00 81 1021.8
20260506215025 13 236 12.9 17.7 0.00 0.00 0.00 80 1021.8
20260506214617 13 220 6.4 19.3 0.00 0.00 0.00 80 1021.7
20260506214028 13 250 11.3 19.3 0.00 0.00 0.00 79 1021.8
20260506213525 13 225 4.8 19.3 0.00 0.00 0.00 80 1021.9
20260506213042 13 159 9.7 19.3 0.00 0.00 0.00 80 1021.9
20260506212527 13 271 9.7 19.3 0.00 0.00 0.00 80 1021.9
20260506212026 13 254 6.4 29.0 0.00 0.00 0.00 81 1021.9
20260506211550 13 194 8.0 29.0 0.00 0.00 0.00 82 1022.0
20260506211026 13 190 11.3 19.3 0.00 0.00 0.00 82 1021.9
20260506210525 13 127 9.7 20.9 0.00 0.00 0.00 81 1022.0
20260506210042 13 254 9.7 20.9 0.00 0.00 0.00 80 1022.0
20260506205525 13 232 6.4 17.7 0.00 0.00 0.00 81 1021.9
20260506205025 13 246 9.7 17.7 0.00 0.00 0.00 80 1021.9
20260506204540 13 209 9.7 17.7 0.00 0.00 0.00 81 1022.0
20260506204026 13 197 8.0 14.5 0.00 0.00 0.00 80 1022.0
20260506203525 13 227 4.8 14.5 0.00 0.00 0.00 81 1021.8
20260506203040 13 267 6.4 22.5 0.00 0.00 0.00 81 1021.7
20260506202525 13 219 9.7 22.5 0.00 0.00 0.00 80 1021.7
20260506202025 13 222 8.0 20.9 0.00 0.00 0.00 80 1021.8
20260506201540 13 283 9.7 17.7 0.00 0.00 0.00 79 1021.8
20260506201028 13 255 8.0 16.1 0.00 0.00 0.00 80 1021.7
20260506200528 13 189 9.7 16.1 0.00 0.00 0.00 79 1021.6
20260506200038 13 267 8.0 14.5 0.00 0.00 0.00 80 1021.7
20260506195530 13 228 4.8 17.7 0.00 0.00 0.00 81 1021.6
20260506195025 13 249 6.4 17.7 0.00 0.00 0.00 81 1021.5
20260506194546 13 193 4.8 24.1 0.00 0.00 0.00 81 1021.5
20260506194028 13 247 11.3 24.1 0.00 0.00 0.00 80 1021.5
20260506193525 13 216 8.0 19.3 0.00 0.00 0.00 81 1021.5
20260506193048 13 201 9.7 19.3 0.00 0.00 0.00 81 1021.5
20260506192526 13 211 9.7 22.5 0.00 0.00 0.00 80 1021.5
20260506192026 12 220 9.7 22.5 0.00 0.00 0.00 81 1021.5
20260506191542 12 241 9.7 22.5 0.00 0.00 0.00 81 1021.4
20260506191026 12 246 9.7 22.5 0.00 0.00 0.00 81 1021.4
20260506190526 12 222 9.7 22.5 0.00 0.00 0.00 81 1021.4
20260506190041 12 225 9.7 19.3 0.00 0.00 0.00 82 1021.5
20260506185525 12 233 9.7 19.3 0.00 0.00 0.00 82 1021.6
20260506185030 12 183 6.4 12.9 0.00 0.00 0.00 83 1021.5
20260506184546 12 254 4.8 16.1 0.00 0.00 0.00 83 1021.5
20260506184033 12 247 8.0 17.7 0.00 0.00 0.00 83 1021.4
20260506183529 12 225 8.0 17.7 0.00 0.00 0.00 82 1021.4
20260506183043 12 238 8.0 19.3 0.00 0.00 0.00 82 1021.4
20260506182526 12 190 8.0 19.3 0.00 0.00 0.00 81 1021.5
20260506182026 12 238 9.7 20.9 0.00 0.00 0.00 82 1021.4
20260506181557 12 232 8.0 20.9 0.00 0.00 0.00 81 1021.3
20260506181026 13 225 9.7 16.1 0.00 0.00 0.00 81 1021.3
20260506180526 13 199 8.0 22.5 0.00 0.00 0.00 81 1021.1
20260506180043 13 222 11.3 22.5 0.00 0.00 0.00 80 1021.1
20260506175527 13 216 8.0 17.7 0.00 0.00 0.00 81 1021.0
20260506175025 13 246 8.0 19.3 0.00 0.00 0.00 81 1021.4
20260506174538 13 257 4.8 20.9 0.00 0.00 0.00 81 1021.2
20260506174025 13 254 9.7 20.9 0.00 0.00 0.00 81 1021.1
20260506173525 13 228 9.7 20.9 0.00 0.00 0.00 79 1021.0
20260506173054 13 198 11.3 22.5 0.00 0.00 0.00 79 1020.9
20260506172526 13 229 9.7 22.5 0.00 0.00 0.00 81 1021.0
20260506172025 13 254 8.0 20.9 0.00 0.00 0.00 80 1021.0
20260506171546 13 252 11.3 20.9 0.00 0.00 0.00 80 1021.0
20260506171025 13 238 6.4 19.3 0.00 0.00 0.00 81 1021.0
20260506170525 12 249 8.0 19.3 0.00 0.00 0.00 81 1021.1
20260506170050 12 224 4.8 11.3 0.00 0.00 0.00 81 1021.1
20260506165525 12 273 4.8 14.5 0.00 0.00 0.00 82 1021.0
20260506165025 12 257 8.0 14.5 0.00 0.00 0.00 81 1021.0
20260506164542 12 260 6.4 16.1 0.00 0.00 0.00 82 1021.0
20260506164028 12 215 4.8 16.1 0.00 0.00 0.00 81 1020.9
20260506163526 12 235 4.8 12.9 0.00 0.00 0.00 82 1021.0
20260506163043 12 237 4.8 12.9 0.00 0.00 0.00 83 1021.0
20260506162525 12 242 4.8 12.9 0.00 0.00 0.00 83 1020.8
20260506162025 12 202 8.0 12.9 0.00 0.00 0.00 83 1020.8
20260506161542 12 209 3.2 12.9 0.00 0.00 0.00 84 1020.7
20260506161025 12 217 4.8 12.9 0.00 0.00 0.00 85 1020.6
20260506160527 12 223 4.8 9.7 0.00 0.00 0.00 85 1020.6
20260506160052 12 248 3.2 9.7 0.00 0.00 0.00 85 1020.5
20260506155525 12 208 4.8 9.7 0.00 0.00 0.00 84 1020.5
20260506155025 12 277 3.2 12.9 0.00 0.00 0.00 86 1020.7
20260506154548 12 279 4.8 12.9 0.00 0.00 0.00 85 1020.4
20260506154025 12 196 4.8 12.9 0.00 0.00 0.00 86 1020.5
20260506153525 12 249 4.8 12.9 0.00 0.00 0.00 86 1020.4
20260506153042 12 210 3.2 11.3 0.00 0.00 0.00 86 1020.4
20260506152525 12 253 4.8 8.0 0.00 0.00 0.00 87 1020.5
20260506152028 11 257 1.6 6.4 0.00 0.00 0.00 88 1020.5
20260506151545 11 265 3.2 8.0 0.00 0.00 0.00 88 1020.5
20260506151026 11 232 3.2 8.0 0.00 0.00 0.00 88 1020.6
20260506150527 11 207 4.8 9.7 0.00 0.00 0.00 89 1020.7
20260506150040 11 172 4.8 9.7 0.00 0.00 0.00 89 1020.6
20260506145526 11 162 3.2 8.0 0.00 0.00 0.00 90 1020.7
20260506145025 11 170 3.2 9.7 0.00 0.00 0.00 90 1020.5
20260506144544 11 209 6.4 9.7 0.00 0.00 0.00 90 1020.4
20260506144025 11 165 4.8 9.7 0.00 0.00 0.00 90 1020.5
20260506143525 11 190 6.4 9.7 0.00 0.00 0.00 90 1020.4
20260506143039 11 197 3.2 8.0 0.00 0.00 0.00 90 1020.4
20260506142526 11 209 4.8 8.0 0.00 0.00 0.00 90 1020.5
20260506142025 11 220 1.6 9.7 0.00 0.00 0.00 90 1020.3
20260506141541 11 161 6.4 9.7 0.00 0.00 0.00 90 1020.0
20260506141027 11 198 4.8 8.0 0.00 0.00 0.00 90 1020.2
20260506140525 11 202 1.6 8.0 0.00 0.00 0.00 90 1020.2
20260506140042 11 193 3.2 12.9 0.00 0.00 0.00 90 1020.2
20260506135524 11 194 3.2 12.9 0.00 0.00 0.00 90 1020.3
20260506135024 11 219 1.6 6.4 0.00 0.00 0.00 90 1020.1
20260506134541 11 269 1.6 9.7 0.00 0.00 0.00 90 1020.1
20260506134025 11 229 4.8 9.7 0.00 0.00 0.00 90 1020.3
20260506133529 11 211 0.0 11.3 0.00 0.00 0.00 90 1020.2
20260506133039 11 224 4.8 11.3 0.00 0.00 0.00 90 1020.2
20260506132525 11 165 4.8 9.7 0.00 0.00 0.00 90 1020.3
20260506132027 11 229 3.2 9.7 0.00 0.00 0.00 90 1020.2
20260506131555 11 249 4.8 11.3 0.00 0.00 0.00 90 1020.2
20260506131025 11 244 3.2 11.3 0.00 0.00 0.00 90 1020.1
20260506130527 11 274 3.2 8.0 0.00 0.00 0.00 90 1020.1
20260506130046 11 237 3.2 6.4 0.00 0.00 0.00 90 1020.1
20260506125525 11 285 1.6 8.0 0.00 0.00 0.00 90 1019.7
20260506125025 11 219 3.2 8.0 0.00 0.00 0.00 90 1019.8
20260506124544 11 243 4.8 11.3 0.00 0.00 0.00 90 1019.7
20260506124025 11 236 3.2 11.3 0.00 0.00 0.00 90 1019.7
20260506123529 11 208 4.8 12.9 0.00 0.00 0.00 90 1019.7
20260506123043 11 244 3.2 12.9 0.00 0.00 0.00 90 1019.7
20260506122525 11 287 4.8 11.3 0.00 0.00 0.00 90 1019.7
20260506122025 11 230 3.2 12.9 0.00 0.00 0.00 90 1019.6
20260506121542 11 296 4.8 14.5 0.00 0.00 0.00 90 1019.7
20260506121025 11 233 4.8 20.9 0.00 0.00 0.00 90 1019.5
20260506120527 11 257 9.7 20.9 0.00 0.00 0.00 90 1019.5
20260506120041 11 248 4.8 16.1 0.00 0.00 0.00 90 1019.5
20260506115525 11 275 6.4 14.5 0.00 0.00 0.00 90 1019.6
20260506115025 11 263 6.4 14.5 0.00 0.00 0.00 90 1019.5
20260506114542 11 246 8.0 16.1 0.00 0.00 0.00 89 1019.5
20260506114029 11 310 6.4 16.1 0.00 0.00 0.00 89 1019.4
20260506113525 11 254 4.8 17.7 0.00 0.00 0.00 89 1019.3
20260506113042 11 257 8.0 17.7 0.00 0.00 0.00 89 1019.3
20260506112524 11 241 6.4 17.7 0.00 0.00 0.00 89 1019.3
20260506112024 11 202 4.8 11.3 0.00 0.00 0.00 90 1019.3
20260506111540 11 274 4.8 12.9 0.00 0.00 0.00 90 1019.2
20260506111028 11 259 3.2 12.9 0.00 0.00 0.00 90 1019.2
20260506110530 11 277 4.8 11.3 0.00 0.00 0.00 90 1019.3
20260506110040 11 246 4.8 12.9 0.00 0.00 0.00 90 1019.3
20260506105526 11 240 4.8 12.9 0.00 0.00 0.00 90 1019.2
20260506105030 11 271 1.6 12.9 0.00 0.00 0.00 90 1019.2
20260506104547 11 253 8.0 12.9 0.00 0.00 0.00 89 1019.2
20260506104025 11 232 4.8 14.5 0.00 0.00 0.00 89 1019.1
20260506103525 11 284 6.4 17.7 0.00 0.00 0.00 89 1019.1
20260506103042 11 244 6.4 17.7 0.00 0.00 0.00 89 1019.1
20260506102525 11 257 6.4 17.7 0.00 0.00 0.00 89 1019.1
20260506102025 11 221 6.4 12.9 0.00 0.00 0.00 89 1019.0
20260506101536 11 269 6.4 12.9 0.00 0.00 0.00 89 1018.9
20260506101025 11 293 4.8 16.1 0.00 0.00 0.00 89 1018.9
20260506100529 11 269 8.0 16.1 0.00 0.00 0.00 89 1018.9
20260506100042 11 274 9.7 17.7 0.00 0.00 0.00 89 1018.8
20260506095527 11 161 4.8 17.7 0.00 0.00 0.00 89 1018.9
20260506095025 11 223 3.2 16.1 0.00 0.00 0.00 89 1018.9
20260506094551 11 255 4.8 16.1 0.00 0.00 0.00 89 1018.7
20260506094028 11 218 6.4 14.5 0.00 0.00 0.00 89 1018.8
20260506093524 11 234 8.0 14.5 0.00 0.00 0.00 89 1018.7
20260506093041 11 224 3.2 9.7 0.00 0.00 0.00 89 1018.6
20260506092525 11 163 3.2 11.3 0.00 0.00 0.00 89 1018.6
20260506092028 11 248 4.8 11.3 0.00 0.00 0.00 89 1018.6
20260506091541 11 227 4.8 20.9 0.00 0.00 0.00 89 1018.5
20260506091026 11 230 4.8 20.9 0.00 0.00 0.00 89 1018.5
20260506090525 11 259 3.2 11.3 0.00 0.00 0.00 89 1018.6
20260506090039 11 252 4.8 11.3 0.00 0.00 0.00 89 1018.6
20260506085527 11 230 6.4 17.7 0.00 0.00 0.00 88 1018.6
20260506085027 11 225 6.4 17.7 0.00 0.00 0.00 88 1018.6
20260506084545 11 242 3.2 12.9 0.00 0.00 0.00 88 1018.5
20260506084028 11 221 4.8 12.9 0.00 0.00 0.00 88 1018.4
20260506083527 11 220 4.8 11.3 0.00 0.00 0.00 88 1018.3
20260506083044 11 184 3.2 9.7 0.00 0.00 0.00 88 1018.2
20260506082530 11 157 3.2 11.3 0.00 0.00 0.00 88 1018.2
20260506082030 11 186 4.8 11.3 0.00 0.00 0.00 88 1018.2
20260506081543 11 198 4.8 11.3 0.00 0.00 0.00 88 1018.2
20260506081027 11 163 3.2 11.3 0.00 0.00 0.00 88 1018.1
20260506080527 11 251 0.0 11.3 0.00 0.00 0.00 88 1018.0
20260506073527 11 218 1.6 8.0 0.00 0.00 0.00 88 1017.7
20260506073041 11 219 1.6 4.8 0.00 0.00 0.00 88 1017.6
20260506072531 11 234 1.6 8.0 0.00 0.00 0.00 88 1017.6
20260506072028 12 206 3.2 8.0 0.00 0.00 0.00 88 1017.6
20260506071547 12 243 3.2 8.0 0.00 0.00 0.00 88 1017.6
20260506071027 11 232 3.2 14.5 0.00 0.00 0.00 88 1017.6
20260506070527 12 209 4.8 14.5 0.00 0.00 0.00 88 1017.5
20260506062027 11 240 3.2 12.9 0.00 0.00 0.00 89 1017.4
20260506061541 11 201 6.4 12.9 0.00 0.00 0.00 89 1017.3
20260506061031 11 242 6.4 12.9 0.00 0.00 0.00 89 1017.4
20260506060529 11 210 4.8 11.3 0.00 0.00 0.00 89 1017.3